Radiation Dose at Monitoring Post of Fukushima Daini Nuclear Power Station
Date,Time,MP-1(microSv/h),MP-2(microSv/h),MP-3(microSv/h),MP-4(microSv/h),MP-5(microSv/h),MP-6(microSv/h),MP-7(microSv/h),Wind Direction,Wind Velocity(m/s),Rain
2015/10/31,00:00,0.516,0.292,0.540,0.498,0.459,0.241,0.211,north,5.4,No
2015/10/31,00:10,0.517,0.292,0.543,0.496,0.458,0.242,0.212,north,4.4,No
2015/10/31,00:20,0.517,0.291,0.539,0.497,0.459,0.241,0.212,north,4.4,No
2015/10/31,00:30,0.517,0.293,0.543,0.495,0.458,0.242,0.211,north,3.1,No
2015/10/31,00:40,0.520,0.293,0.537,0.494,0.459,0.242,0.212,north,3.6,No
2015/10/31,00:50,0.517,0.292,0.542,0.497,0.457,0.240,0.210,north,3.3,No
2015/10/31,01:00,0.523,0.294,0.539,0.495,0.458,0.241,0.212,north,4.4,No
2015/10/31,01:10,0.518,0.293,0.540,0.496,0.459,0.242,0.210,north,4.4,No
2015/10/31,01:20,0.519,0.292,0.541,0.496,0.458,0.242,0.212,north,2.5,No
2015/10/31,01:30,0.520,0.293,0.539,0.495,0.458,0.242,0.211,north,3.4,No
2015/10/31,01:40,0.518,0.291,0.541,0.496,0.456,0.241,0.211,north,3.3,No
2015/10/31,01:50,0.521,0.292,0.539,0.494,0.458,0.242,0.211,north,3.9,No
2015/10/31,02:00,0.517,0.293,0.539,0.497,0.458,0.241,0.212,north,1.6,No
2015/10/31,02:10,0.519,0.291,0.540,0.495,0.457,0.241,0.211,north,3.0,No
2015/10/31,02:20,0.519,0.293,0.539,0.494,0.459,0.241,0.210,north,3.3,No
2015/10/31,02:30,0.518,0.291,0.541,0.498,0.457,0.242,0.212,north,4.2,No
2015/10/31,02:40,0.518,0.292,0.539,0.494,0.457,0.241,0.211,north,4.3,No
2015/10/31,02:50,0.519,0.293,0.541,0.497,0.460,0.241,0.212,north,4.1,No
2015/10/31,03:00,0.519,0.292,0.542,0.498,0.459,0.242,0.211,north,3.6,No
2015/10/31,03:10,0.520,0.293,0.538,0.494,0.457,0.242,0.212,north,3.9,No
2015/10/31,03:20,0.517,0.293,0.543,0.498,0.459,0.242,0.213,north,3.2,No
2015/10/31,03:30,0.521,0.291,0.537,0.498,0.457,0.242,0.212,north,3.4,No
2015/10/31,03:40,0.518,0.292,0.540,0.493,0.458,0.242,0.212,north,3.1,No
2015/10/31,03:50,0.517,0.293,0.543,0.497,0.458,0.242,0.212,north,3.9,No
2015/10/31,04:00,0.520,0.292,0.537,0.495,0.457,0.241,0.211,north,3.6,No
2015/10/31,04:10,0.518,0.292,0.541,0.496,0.459,0.242,0.211,north,4.4,No
2015/10/31,04:20,0.518,0.292,0.541,0.497,0.456,0.243,0.212,north,5.8,No
2015/10/31,04:30,0.520,0.292,0.539,0.494,0.458,0.242,0.212,north,4.8,No
2015/10/31,04:40,0.518,0.292,0.542,0.496,0.458,0.242,0.212,north,6.2,No
2015/10/31,04:50,0.521,0.293,0.540,0.496,0.457,0.241,0.213,north,5.8,No
2015/10/31,05:00,0.518,0.291,0.540,0.496,0.456,0.241,0.212,north,6.1,No
2015/10/31,05:10,0.519,0.291,0.542,0.497,0.458,0.243,0.211,north,6.4,No
2015/10/31,05:20,0.521,0.293,0.538,0.496,0.460,0.242,0.212,north,7.0,No
2015/10/31,05:30,0.518,0.292,0.541,0.494,0.457,0.242,0.213,north,5.6,No
2015/10/31,05:40,0.517,0.291,0.540,0.497,0.458,0.242,0.211,north,5.3,No
2015/10/31,05:50,0.520,0.293,0.539,0.494,0.457,0.242,0.211,north-northwest,4.2,No
2015/10/31,06:00,0.517,0.292,0.541,0.497,0.457,0.241,0.214,north,4.8,No
2015/10/31,06:10,0.521,0.292,0.539,0.496,0.459,0.240,0.212,north-northwest,3.9,No
2015/10/31,06:20,0.517,0.292,0.538,0.495,0.458,0.242,0.212,north-northwest,3.2,No
2015/10/31,06:30,0.517,0.292,0.541,0.496,0.457,0.242,0.213,north,2.5,No
2015/10/31,06:40,0.519,0.292,0.538,0.496,0.458,0.242,0.213,north,2.6,No
2015/10/31,06:50,0.518,0.294,0.540,0.494,0.457,0.241,0.212,north,3.7,No
2015/10/31,07:00,0.520,0.293,0.540,0.496,0.457,0.242,0.212,north,3.9,No
2015/10/31,07:10,0.520,0.292,0.537,0.496,0.459,0.241,0.213,north,3.0,No
2015/10/31,07:20,0.518,0.293,0.542,0.496,0.457,0.243,0.211,north,3.8,No
2015/10/31,07:30,0.520,0.292,0.538,0.498,0.459,0.243,0.211,north,2.9,No
2015/10/31,07:40,0.517,0.293,0.539,0.494,0.458,0.242,0.211,north,2.7,No
2015/10/31,07:50,0.519,0.292,0.542,0.497,0.457,0.243,0.212,north,2.5,No
2015/10/31,08:00,0.520,0.292,0.538,0.494,0.459,0.241,0.212,north,2.5,No
2015/10/31,08:10,0.517,0.292,0.542,0.494,0.457,0.243,0.212,north,2.1,No
2015/10/31,08:20,0.520,0.292,0.537,0.496,0.458,0.243,0.213,north,1.8,No
2015/10/31,08:30,0.515,0.292,0.542,0.494,0.456,0.242,0.211,north-northeast,1.2,No
2015/10/31,08:40,0.520,0.292,0.537,0.498,0.455,0.242,0.211,northeast,2.5,No
2015/10/31,08:50,0.514,0.290,0.538,0.493,0.460,0.242,0.212,east-northeast,1.8,No
2015/10/31,09:00,0.520,0.293,0.539,0.496,0.456,0.243,0.211,northeast,1.2,No
2015/10/31,09:10,0.517,0.291,0.538,0.493,0.461,0.242,0.212,northeast,0.8,No
2015/10/31,09:20,0.519,0.293,0.540,0.496,0.456,0.241,0.211,east-northeast,2.2,No
2015/10/31,09:30,0.517,0.291,0.536,0.493,0.461,0.242,0.212,northeast,1.7,No
2015/10/31,09:40,0.519,0.291,0.541,0.496,0.457,0.240,0.211,east,0.7,No
2015/10/31,09:50,0.521,0.291,0.537,0.493,0.461,0.242,0.212,northeast,1.1,No
2015/10/31,10:00,0.516,0.292,0.541,0.497,0.456,0.240,0.211,-,CALM,No
2015/10/31,10:10,0.520,0.292,0.537,0.496,0.461,0.242,0.212,north-northeast,0.8,No
2015/10/31,10:20,0.519,0.293,0.540,0.497,0.456,0.241,0.212,-,CALM,No
2015/10/31,10:30,0.520,0.292,0.538,0.494,0.459,0.241,0.212,-,CALM,No
2015/10/31,10:40,0.515,0.292,0.540,0.495,0.457,0.242,0.212,-,CALM,No
2015/10/31,10:50,0.522,0.291,0.535,0.495,0.460,0.243,0.211,-,CALM,No
2015/10/31,11:00,0.515,0.293,0.541,0.495,0.457,0.240,0.212,south-southeast,1.7,No
2015/10/31,11:10,0.519,0.292,0.537,0.497,0.461,0.243,0.212,-,CALM,No
2015/10/31,11:20,0.517,0.294,0.541,0.495,0.457,0.241,0.211,northeast,1.1,No
2015/10/31,11:30,0.519,0.292,0.535,0.496,0.461,0.243,0.212,southeast,0.8,No
2015/10/31,11:40,0.516,0.291,0.543,0.495,0.457,0.240,0.212,east-northeast,0.8,Yes
2015/10/31,11:50,0.520,0.293,0.537,0.497,0.461,0.243,0.212,east,0.8,No
2015/10/31,12:00,0.516,0.291,0.541,0.494,0.457,0.241,0.211,east-northeast,1.0,No
2015/10/31,12:10,0.521,0.293,0.537,0.499,0.462,0.242,0.211,-,CALM,No
2015/10/31,12:20,0.518,0.292,0.541,0.495,0.457,0.241,0.211,-,CALM,Yes
2015/10/31,12:30,0.520,0.294,0.538,0.498,0.461,0.243,0.212,-,CALM,Yes
2015/10/31,12:40,0.516,0.292,0.541,0.495,0.457,0.242,0.213,-,CALM,No
2015/10/31,12:50,0.520,0.293,0.538,0.498,0.460,0.242,0.212,east-northeast,1.2,No
2015/10/31,13:00,0.516,0.292,0.541,0.494,0.457,0.241,0.212,east,0.9,No
2015/10/31,13:10,0.520,0.293,0.537,0.499,0.460,0.241,0.211,-,CALM,No
2015/10/31,13:20,0.516,0.291,0.540,0.493,0.458,0.240,0.211,southeast,1.1,No
2015/10/31,13:30,0.521,0.293,0.538,0.500,0.461,0.241,0.210,east-northeast,0.6,No
2015/10/31,13:40,0.516,0.291,0.543,0.492,0.457,0.241,0.211,south-southeast,0.9,No
2015/10/31,13:50,0.519,0.294,0.539,0.497,0.459,0.243,0.212,east-southeast,1.0,No
2015/10/31,14:00,0.516,0.293,0.542,0.494,0.457,0.241,0.212,-,CALM,No
2015/10/31,14:10,0.519,0.293,0.538,0.499,0.460,0.241,0.211,south-southwest,1.0,No
2015/10/31,14:20,0.516,0.292,0.541,0.495,0.456,0.241,0.211,east-southeast,0.5,No
2015/10/31,14:30,0.522,0.292,0.540,0.498,0.461,0.242,0.212,east-northeast,0.7,No
2015/10/31,14:40,0.517,0.292,0.542,0.496,0.457,0.242,0.212,-,CALM,No
2015/10/31,14:50,0.520,0.291,0.540,0.499,0.462,0.241,0.212,-,CALM,Yes
2015/10/31,15:00,0.516,0.292,0.542,0.494,0.456,0.241,0.211,south-southeast,0.9,No
2015/10/31,15:10,0.521,0.291,0.540,0.499,0.461,0.241,0.211,-,CALM,Yes
2015/10/31,15:20,0.516,0.293,0.542,0.494,0.458,0.241,0.212,southeast,0.7,Yes
2015/10/31,15:30,0.520,0.291,0.540,0.498,0.460,0.241,0.210,-,CALM,Yes
2015/10/31,15:40,0.516,0.293,0.541,0.498,0.459,0.242,0.210,-,CALM,No
2015/10/31,15:50,0.520,0.291,0.540,0.497,0.460,0.242,0.211,-,CALM,No
2015/10/31,16:00,0.517,0.295,0.540,0.497,0.458,0.241,0.211,-,CALM,No
2015/10/31,16:10,0.520,0.293,0.541,0.495,0.460,0.242,0.211,-,CALM,No
2015/10/31,16:20,0.517,0.293,0.540,0.498,0.460,0.241,0.210,north,0.8,No
2015/10/31,16:30,0.519,0.292,0.544,0.493,0.456,0.242,0.212,-,CALM,No
2015/10/31,16:40,0.518,0.291,0.538,0.499,0.460,0.242,0.211,north-northeast,0.7,Yes
2015/10/31,16:50,0.518,0.293,0.542,0.495,0.457,0.241,0.210,north-northwest,0.9,No
2015/10/31,17:00,0.522,0.292,0.539,0.498,0.460,0.241,0.212,north,0.7,No
2015/10/31,17:10,0.516,0.293,0.540,0.496,0.459,0.242,0.212,north-northwest,0.8,No
2015/10/31,17:20,0.520,0.294,0.539,0.496,0.458,0.241,0.211,north,1.0,No
2015/10/31,17:30,0.519,0.292,0.538,0.497,0.460,0.242,0.212,north-northwest,1.4,No
2015/10/31,17:40,0.519,0.294,0.542,0.496,0.456,0.241,0.211,north-northwest,0.7,No
2015/10/31,17:50,0.518,0.291,0.539,0.497,0.458,0.242,0.211,north,0.7,No
2015/10/31,18:00,0.517,0.293,0.541,0.497,0.458,0.243,0.211,north-northwest,0.7,No
2015/10/31,18:10,0.520,0.293,0.542,0.495,0.458,0.242,0.211,west-northwest,0.5,No
2015/10/31,18:20,0.517,0.292,0.540,0.499,0.457,0.242,0.210,west-northwest,0.7,No
2015/10/31,18:30,0.519,0.292,0.543,0.496,0.459,0.242,0.211,north-northwest,0.8,No
2015/10/31,18:40,0.519,0.293,0.538,0.498,0.458,0.241,0.212,-,CALM,No
2015/10/31,18:50,0.517,0.293,0.543,0.497,0.458,0.242,0.211,-,CALM,No
2015/10/31,19:00,0.521,0.294,0.540,0.497,0.457,0.241,0.211,north-northeast,0.7,No
2015/10/31,19:10,0.518,0.293,0.539,0.497,0.459,0.242,0.212,-,CALM,No
2015/10/31,19:20,0.517,0.293,0.543,0.498,0.459,0.241,0.212,-,CALM,No
2015/10/31,19:30,0.521,0.293,0.539,0.494,0.457,0.242,0.212,west-northwest,0.6,No
2015/10/31,19:40,0.518,0.293,0.540,0.499,0.459,0.241,0.212,-,CALM,No
2015/10/31,19:50,0.519,0.293,0.541,0.496,0.458,0.241,0.211,southwest,0.8,No
2015/10/31,20:00,0.520,0.292,0.538,0.497,0.456,0.241,0.212,west-southwest,0.8,No
2015/10/31,20:10,0.515,0.294,0.542,0.496,0.458,0.241,0.212,west-northwest,2.2,No
2015/10/31,20:20,0.520,0.292,0.538,0.496,0.457,0.241,0.211,northwest,3.9,No
2015/10/31,20:30,0.519,0.292,0.540,0.496,0.456,0.242,0.213,north-northwest,4.7,No
2015/10/31,20:40,0.519,0.293,0.543,0.496,0.458,0.242,0.212,north-northwest,4.0,No
2015/10/31,20:50,0.522,0.292,0.540,0.495,0.457,0.240,0.212,north-northwest,4.5,No
2015/10/31,21:00,0.519,0.292,0.540,0.497,0.457,0.242,0.212,north-northwest,4.3,No
2015/10/31,21:10,0.521,0.294,0.542,0.495,0.458,0.241,0.213,northwest,4.7,No
2015/10/31,21:20,0.519,0.292,0.540,0.494,0.456,0.241,0.212,northwest,4.0,No
2015/10/31,21:30,0.517,0.291,0.541,0.497,0.457,0.242,0.212,northwest,4.2,No
2015/10/31,21:40,0.521,0.292,0.540,0.497,0.459,0.243,0.211,northwest,4.6,No
2015/10/31,21:50,0.519,0.294,0.538,0.494,0.458,0.241,0.211,northwest,4.5,No
2015/10/31,22:00,0.516,0.291,0.541,0.497,0.458,0.242,0.212,northwest,5.0,No
2015/10/31,22:10,0.519,0.292,0.540,0.497,0.458,0.241,0.212,northwest,6.2,No
2015/10/31,22:20,0.518,0.293,0.540,0.494,0.458,0.241,0.211,north-northwest,6.1,No
2015/10/31,22:30,0.516,0.292,0.543,0.497,0.456,0.241,0.212,north-northwest,5.0,No
2015/10/31,22:40,0.522,0.291,0.540,0.497,0.457,0.241,0.212,north-northwest,6.2,No
2015/10/31,22:50,0.519,0.293,0.540,0.495,0.459,0.241,0.211,north-northwest,4.5,No
2015/10/31,23:00,0.517,0.292,0.543,0.496,0.458,0.241,0.212,north,4.9,No
2015/10/31,23:10,0.521,0.292,0.539,0.496,0.458,0.241,0.212,north,3.8,No
2015/10/31,23:20,0.516,0.292,0.538,0.495,0.457,0.241,0.212,north,3.5,No
2015/10/31,23:30,0.520,0.292,0.542,0.495,0.456,0.241,0.212,north,2.8,No
2015/10/31,23:40,0.519,0.293,0.540,0.496,0.458,0.241,0.214,north,3.0,No
2015/10/31,23:50,0.517,0.293,0.540,0.494,0.458,0.243,0.211,north,3.9,No
